[[{"header":{"parameterUnit":"m.s-1","parameterCategory":1,"la1":30.2991,"la2":30.254,"lo1":-89.0895,"lo2":-89.0444,"dy":0.0017,"dx":0.0017,"nx":28,"ny":28,"refTime":"2024-03-25T09:00:00:Z","depth":0,"parameterNumber":2,"parameterNumberName":"U-component_of_WINDS"},"data":[0,0,0,0,0,0,0,0,0,0,0,0,0,0,0,0,0,0,0,0,0,0,0,0,0,0,0,0,0,0,0,0,0,0,0,0,0,0,0,0,0,0,0,0,0,0,0,0,0,0,0,0,0,0,0,0,0,0,-10.6065,-10.6068,0,-10.6312,-10.6314,-10.6317,-10.6318,-10.6315,-10.6312,-10.6309,-10.6555,-10.6565,-10.6574,0,0,0,0,0,0,0,0,0,0,0,0,0,-10.5592,-10.5601,-10.6065,-10.6068,-10.6071,-10.6311,-10.6314,-10.6318,-10.6319,-10.6315,-10.6311,-10.6308,-10.6552,-10.6563,-10.6575,0,0,0,0,0,0,0,0,0,0,0,0,0,-10.5814,-10.5604,-10.6064,-10.6101,-10.6106,-10.631,-10.6315,-10.6319,-10.632,-10.6315,-10.631,-10.6306,-10.6549,-10.6562,-10.6576,-10.6759,0,0,-10.662,-10.6626,0,0,0,0,0,0,0,0,-10.5801,-10.5831,-10.6092,-10.6099,-10.6105,-10.6279,-10.6238,-10.6466,-10.6321,-10.6239,-10.6309,-10.6303,-10.6467,-10.6488,-10.6544,-10.677,-10.6781,-10.6621,-10.663,-10.6636,-10.664,0,0,0,0,0,0,0,-10.5786,-10.582,-10.6162,-10.6096,-10.6104,-10.6104,-10.613,-10.6281,-10.6376,-10.6245,-10.6246,-10.6275,-10.647,-10.653,-10.655,-10.6785,-10.6621,-10.6633,-10.6642,-10.6648,-10.7173,-10.7178,0,0,0,0,0,0,-10.5764,-10.5808,-10.6154,-10.617,-10.5939,-10.6116,-10.6145,-10.6228,-10.6374,-10.6392,-10.6279,-10.6275,-10.6508,-10.6533,-10.6558,-10.678,-10.6636,-10.6649,-10.6657,-10.7167,-10.7174,-10.718,0,0,0,0,0,0,-10.5754,-10.5795,-10.6145,-10.5989,-10.6034,-10.6129,-10.6222,-10.6236,-10.6296,-10.64,-10.6417,-10.6324,-10.6506,-10.6538,-10.6709,-10.6788,-10.6656,-10.6669,-10.7161,-10.7169,-10.7177,-10.7225,0,0,0,0,0,0,-10.574,-10.5791,-10.5861,-10.5991,-10.6042,-10.6292,-10.6227,-10.6244,-10.6321,-10.6318,-10.6446,-10.6463,-10.6504,-10.6688,-10.6724,-10.6806,-10.668,-10.7154,-10.7165,-10.7174,-10.7216,-10.7233,-10.7248,0,0,0,0,0,-10.5723,-10.5864,-10.5865,-10.5907,-10.6133,-10.6297,-10.6326,-10.6372,-10.6328,-10.6399,-10.6466,-10.6459,-10.6776,-10.6706,-10.6745,-10.6833,-10.7149,-10.7162,-10.7174,-10.7209,-10.723,-10.7248,0,0,0,0,0,0,-10.5738,-10.5881,-10.5884,-10.6071,-10.6172,-10.6297,-10.6387,-10.6393,-10.6506,-10.6498,-10.6549,-10.6578,-10.6748,-10.6809,-10.6728,-10.7017,-10.6957,-10.6978,-10.697,-10.6991,-10.7007,-10.6986,-10.6692,0,0,0,0,0,-10.5764,-10.5887,-10.6005,-10.6159,-10.621,-10.629,-10.6364,-10.6391,-10.6497,-10.6538,-10.6618,-10.672,-10.6842,-10.6921,-10.7039,-10.7228,-10.7254,-10.7308,-10.7324,-10.7336,-10.7351,-10.7454,-10.7479,-10.722,-10.722,-10.7219,0,0,-10.5817,-10.5911,-10.5984,-10.6165,-10.6246,-10.637,-10.6326,-10.6459,-10.6551,-10.6558,-10.6723,-10.6787,-10.6904,-10.7084,-10.7167,-10.7139,-10.743,-10.7352,-10.7361,-10.737,-10.7469,-10.7494,-10.7515,-10.7228,-10.7227,-10.7225,0,0,-10.5976,-10.6061,-10.6198,-10.6281,-10.6406,-10.646,-10.6493,-10.6619,-10.6661,-10.6829,-10.6837,-10.6948,-10.7158,-10.724,-10.731,-10.7506,-10.7502,-10.7544,-10.7623,-10.7723,-10.7743,-10.7762,-10.7828,-10.7852,-10.756,-10.756,-10.756,0,-10.6025,-10.6214,-10.6267,-10.6401,-10.6479,-10.6496,-10.6634,-10.6712,-10.6868,-10.6921,-10.689,-10.7155,-10.7235,-10.7433,-10.7482,-10.7539,-10.7576,-10.7525,-10.7737,-10.7756,-10.7773,-10.7837,-10.7862,-10.7564,-10.7563,-10.7563,-10.7563,0,-10.6267,-10.6399,-10.6494,-10.6647,-10.6737,-10.6872,-10.6944,-10.7029,-10.7051,-10.7108,-10.7279,-10.7377,-10.7515,-10.7566,-10.7587,-10.7768,-10.7747,-10.7726,-10.7665,-10.7801,-10.7861,-10.7887,-10.7569,-10.7568,-10.7567,-10.7566,0,0,-10.6435,-10.662,-10.6653,-10.6723,-10.6865,-10.6966,-10.7104,-10.7242,-10.7312,-10.7422,-10.7535,-10.7716,-10.7698,-10.7777,-10.7809,-10.7897,-10.8043,-10.7865,-10.7869,-10.7891,-10.8246,-10.8256,-10.8284,-10.8045,-10.805,-10.8054,-10.8234,0,-10.6606,-10.685,-10.6903,-10.7113,-10.7234,-10.7255,-10.7374,-10.7473,-10.7532,-10.7642,-10.7706,-10.7831,-10.78,-10.7848,-10.7937,-10.8006,-10.8114,-10.7995,-10.8148,-10.8152,-10.8112,-10.8316,-10.8328,-10.8493,-10.8259,-10.8263,-10.8266,0,-10.6835,-10.6952,-10.7175,-10.7302,-10.7355,-10.7461,-10.7592,-10.7699,-10.7812,-10.7849,-10.794,-10.7963,-10.8105,-10.8043,-10.8239,-10.8156,-10.8224,-10.8268,-10.8275,-10.8286,-10.8213,-10.8328,-10.8548,-10.857,-10.8305,-10.8302,-10.8299,0,-10.6931,-10.7144,-10.7305,-10.7365,-10.7518,-10.7592,-10.7659,-10.7769,-10.7848,-10.7964,-10.8016,-10.8146,-10.8215,-10.8315,-10.8373,-10.8323,-10.8563,-10.8506,-10.8594,-10.8593,-10.8638,-10.8633,-10.8866,-10.8691,-10.8691,-10.869,-10.869,0,-10.7112,-10.7246,-10.735,-10.7447,-10.7599,-10.7661,-10.7808,-10.7875,-10.7973,-10.8083,-10.8111,-10.8213,-10.8287,-10.84,-10.8447,-10.86,-10.8632,-10.8664,-10.8673,-10.8658,-10.8653,-10.8697,-10.8685,-10.8697,-10.8696,-10.8694,-10.8693,0,-10.724,-10.7316,-10.7491,-10.7624,-10.7661,-10.7766,-10.7879,-10.7974,-10.8036,-10.8176,-10.8212,-10.8307,-10.8442,-10.8512,-10.868,-10.8711,-10.8882,-10.8888,-10.8844,-10.8846,-10.8929,-10.8918,-10.9194,-10.9231,-10.9036,-10.9038,-10.9039,0,-10.7347,-10.7451,-10.7597,-10.7674,-10.7743,-10.7867,-10.795,-10.8016,-10.8101,-10.824,-10.8319,-10.8456,-10.8568,-10.8783,-10.8866,-10.8995,-10.9,-10.9089,-10.9019,-10.9001,-10.8996,-10.8987,-10.8996,-10.9098,-10.91,-10.9101,-10.9103,0,-10.7529,-10.7562,-10.7681,-10.7815,-10.7913,-10.8021,-10.8127,-10.8188,-10.8272,-10.8366,-10.8505,-10.8593,-10.8767,-10.8901,-10.9037,-10.9105,-10.9117,-10.9125,-10.9151,-10.9133,-10.9102,-10.9116,-10.8871,-10.9116,-10.9115,-10.9114,-10.9113,-10.9113,-10.7647,-10.774,-10.7857,-10.7989,-10.8077,-10.8177,-10.8273,-10.8348,-10.8467,-10.8613,-10.8647,-10.8793,-10.8906,-10.9091,-10.9164,-10.9278,-10.926,-10.9299,-10.9308,-10.9315,-10.9316,-10.9089,-10.9304,-10.9304,-10.9304,-10.9303,-10.9303,0,-10.7825,-10.7903,-10.8025,-10.8174,-10.8278,-10.8286,-10.8405,-10.849,-10.8619,-10.8725,-10.8837,-10.8997,-10.913,-10.9226,-10.936,-10.9434,-10.9442,-10.9466,-10.9458,-10.9473,-10.9327,-10.9289,-10.9457,-10.9457,-10.9457,-10.9457,-10.9456,-10.9456,-10.793,-10.8088,-10.8136,-10.8338,-10.8415,-10.856,-10.8627,-10.8719,-10.8803,-10.8982,-10.9093,-10.9156,-10.9258,-10.9401,-10.9522,-10.9547,-10.9593,-10.9616,-10.964,-10.95,-10.9483,-10.9468,-10.9431,-10.9626,-10.9627,-10.9775,-10.9777,-10.9778]},{"header":{"parameterUnit":"m.s-1","parameterCategory":1,"la1":30.2991,"la2":30.254,"lo1":-89.0895,"lo2":-89.0444,"dy":0.0017,"dx":0.0017,"nx":28,"ny":28,"refTime":"2024-03-25T09:00:00:Z","depth":0,"parameterNumber":3,"parameterNumberName":"V-component_of_WINDS"},"data":[0,0,0,0,0,0,0,0,0,0,0,0,0,0,0,0,0,0,0,0,0,0,0,0,0,0,0,0,0,0,0,0,0,0,0,0,0,0,0,0,0,0,0,0,0,0,0,0,0,0,0,0,0,0,0,0,0,0,4.4013,4.4014,0,4.4129,4.4131,4.4132,4.4169,4.4168,4.4168,4.4167,4.4282,4.4285,4.4289,0,0,0,0,0,0,0,0,0,0,0,0,0,4.3819,4.3823,4.4012,4.4014,4.4015,4.4129,4.4131,4.4132,4.4169,4.4168,4.4168,4.4167,4.4281,4.4285,4.4289,0,0,0,0,0,0,0,0,0,0,0,0,0,4.3916,4.3824,4.4012,4.4048,4.4052,4.4129,4.4131,4.4133,4.4169,4.4168,4.4168,4.4167,4.4279,4.4284,4.429,4.4338,0,0,4.4306,4.4308,0,0,0,0,0,0,0,0,4.391,4.3923,4.4041,4.4045,4.405,4.4134,4.4104,4.4201,4.4169,4.4125,4.4167,4.4167,4.4233,4.4242,4.4265,4.4343,4.4348,4.4306,4.4309,4.4312,4.4313,0,0,0,0,0,0,0,4.3904,4.3918,4.4058,4.4043,4.4048,4.4057,4.407,4.4123,4.4181,4.4128,4.4131,4.4145,4.4235,4.426,4.4268,4.435,4.4306,4.4311,4.4314,4.4316,4.4476,4.4477,0,0,0,0,0,0,4.3892,4.3912,4.4055,4.4062,4.3977,4.4061,4.4075,4.4108,4.4181,4.4192,4.4145,4.4146,4.4251,4.4262,4.4272,4.4335,4.4312,4.4317,4.432,4.4475,4.4476,4.4477,0,0,0,0,0,0,4.3887,4.3904,4.405,4.3988,4.4007,4.4065,4.4101,4.411,4.4135,4.4194,4.4204,4.416,4.4251,4.4265,4.4322,4.434,4.4319,4.4324,4.4473,4.4475,4.4477,4.4461,0,0,0,0,0,0,4.3882,4.3902,4.3921,4.3988,4.4011,4.4099,4.4102,4.4113,4.4145,4.4147,4.4211,4.422,4.4252,4.4314,4.4328,4.4347,4.4328,4.4472,4.4474,4.4476,4.446,4.4461,4.4463,0,0,0,0,0,4.3875,4.3911,4.3922,4.3939,4.4036,4.41,4.4112,4.4149,4.4146,4.4166,4.4204,4.4218,4.4336,4.432,4.4335,4.4356,4.4471,4.4474,4.4476,4.4459,4.4461,4.4463,0,0,0,0,0,0,4.3841,4.392,4.3934,4.3993,4.404,4.4106,4.4132,4.4149,4.4197,4.4196,4.4238,4.4253,4.4307,4.4337,4.4318,4.4408,4.4404,4.441,4.4386,4.4388,4.439,4.4381,4.4332,0,0,0,0,0,4.3842,4.3888,4.3953,4.3999,4.4022,4.4073,4.4102,4.4127,4.4176,4.4195,4.4237,4.4284,4.4332,4.4362,4.4409,4.4465,4.448,4.4487,4.4488,4.4489,4.4493,4.4527,4.4532,4.4485,4.4485,4.4485,0,0,4.3841,4.389,4.3916,4.3994,4.4033,4.4079,4.4089,4.4137,4.4172,4.4202,4.426,4.4292,4.4347,4.4405,4.4432,4.4431,4.451,4.4493,4.4493,4.4497,4.453,4.4535,4.4538,4.4487,4.4486,4.4486,0,0,4.3864,4.3905,4.3949,4.3989,4.405,4.4084,4.4094,4.4159,4.4183,4.4242,4.4266,4.4308,4.4388,4.4427,4.4457,4.4499,4.4514,4.4513,4.452,4.4553,4.4557,4.456,4.4576,4.4581,4.4517,4.4517,4.4517,0,4.3855,4.3928,4.3969,4.4017,4.4051,4.4084,4.4128,4.4164,4.4236,4.4258,4.4258,4.4362,4.4401,4.4469,4.4479,4.4502,4.4516,4.4505,4.4553,4.4557,4.4561,4.4576,4.4582,4.4516,4.4516,4.4516,4.4517,0,4.3915,4.3965,4.3992,4.4064,4.4101,4.4147,4.4195,4.4227,4.425,4.4284,4.4344,4.4393,4.4451,4.4469,4.449,4.4541,4.4539,4.4545,4.4542,4.4564,4.4579,4.4585,4.4516,4.4516,4.4516,4.4516,0,0,4.3918,4.4015,4.4024,4.4058,4.4129,4.4167,4.4215,4.4275,4.4302,4.4351,4.4392,4.4462,4.4469,4.4503,4.4529,4.4558,4.4589,4.4561,4.4563,4.4565,4.4649,4.4644,4.4651,4.46,4.4602,4.4603,4.4645,0,4.3951,4.404,4.4079,4.415,4.4197,4.423,4.4272,4.4319,4.4353,4.4398,4.4434,4.4483,4.4489,4.451,4.454,4.4579,4.4607,4.4576,4.4638,4.464,4.4624,4.4658,4.4653,4.469,4.4651,4.4652,4.4653,0,4.4,4.4053,4.4128,4.4196,4.4217,4.4254,4.4313,4.4355,4.441,4.4433,4.4473,4.4499,4.455,4.4544,4.4616,4.4595,4.4623,4.4646,4.4648,4.4655,4.4647,4.4666,4.4703,4.4709,4.4663,4.4662,4.4661,0,4.3996,4.4085,4.4143,4.4171,4.425,4.4276,4.431,4.4365,4.4399,4.445,4.4473,4.4528,4.4559,4.4601,4.4641,4.4633,4.4709,4.4706,4.4729,4.4728,4.4743,4.4741,4.4785,4.4761,4.4761,4.4761,4.4761,0,4.4029,4.4074,4.4143,4.4178,4.423,4.4276,4.4325,4.4362,4.4411,4.4453,4.4485,4.4524,4.4574,4.462,4.4651,4.4707,4.472,4.4739,4.4747,4.4737,4.4734,4.4755,4.4753,4.4762,4.4762,4.4762,4.4761,0,4.4032,4.408,4.4146,4.4217,4.4236,4.4272,4.4332,4.4368,4.4404,4.4458,4.4473,4.453,4.4586,4.463,4.4702,4.4723,4.4781,4.479,4.4763,4.4767,4.4788,4.4785,4.4846,4.4857,4.4825,4.4825,4.4826,0,4.405,4.4086,4.4163,4.4195,4.4229,4.428,4.4316,4.4363,4.4399,4.4466,4.4493,4.4552,4.4601,4.4688,4.4735,4.479,4.48,4.4818,4.4809,4.4798,4.4801,4.4799,4.4803,4.4819,4.4819,4.4819,4.4819,0,4.4076,4.4099,4.4151,4.4211,4.4254,4.4303,4.4353,4.4377,4.4433,4.4471,4.453,4.4568,4.4644,4.4701,4.4762,4.4796,4.4817,4.4822,4.483,4.482,4.4803,4.4813,4.4766,4.482,4.482,4.482,4.482,4.482,4.4088,4.4123,4.4183,4.424,4.4283,4.4329,4.4367,4.441,4.446,4.4526,4.4551,4.4611,4.4667,4.4751,4.4786,4.4834,4.4835,4.4847,4.485,4.4852,4.4852,4.4796,4.4845,4.4845,4.4845,4.4845,4.4845,0,4.4117,4.4158,4.421,4.4281,4.4325,4.4344,4.44,4.4436,4.449,4.4541,4.459,4.4658,4.4715,4.4767,4.4827,4.4854,4.4866,4.4868,4.4867,4.4875,4.4846,4.4834,4.4859,4.4859,4.4859,4.4859,4.4859,4.4859,4.4137,4.4197,4.4227,4.4309,4.435,4.4411,4.4442,4.4486,4.4527,4.4602,4.4651,4.4686,4.4738,4.4802,4.4854,4.4869,4.4889,4.4889,4.4906,4.4878,4.4876,4.4874,4.4863,4.4893,4.4893,4.493,4.4931,4.4931]}]]